Location: Akdamlar
(36.8729°N, 30.5187°E)
Time: 18:42:02
(UTC+00:00)

Cosmos 1867 - Pass Details

Date: 18 September 2020
Orbit: 777 x 799 km, 65.0° (Epoch: 26 October)

Event Time Altitude Azimuth Distance (km) Brightness Sun altitude
Rises 18:30:56 0° 323° (NW) 3,308 7.7 -29.8°
Reaches altitude 10° 18:33:27 10° 317° (NW) 2,374 6.9 -30.2°
Maximum altitude 18:38:35 43° 247° (WSW) 1,102 4.4 -31.1°
Enters shadow 18:38:37 43° 246° (WSW) 1,102 4.4 -31.1°
